Location: ??????????
(54.4061°N, 22.6114°E)
Time: 12:47:14
(UTC+00:00)

Cosmos 1766 Rocket - Pass Details

Date: 23 October 2019
Orbit: 604 x 634 km, 82.5° (Epoch: 11 November)

Event Time Altitude Azimuth Distance (km) Brightness Sun altitude
Rises 17:38:53 0° 347° (NNW) 2,876 7.3 -21.6°
Reaches altitude 10° 17:41:07 10° 347° (NNW) 1,968 6.4 -21.9°
Maximum altitude 17:45:27 80° 262° (W) 624 3.5 -22.6°
Enters shadow 17:47:01 39° 180° (S) 915 4.3 -22.8°
